Weather History for Taunton, MA

Change the Weather History Date:

Friday, May 10, 2013

  Actual Average Record
Temperature  
Mean Temperature 68 °F -  
Max Temperature 81 °F 68 °F 95 °F (1979)
Min Temperature 55 °F 43 °F 31 °F (1983)
Cooling Degree Days 2    
Growing Degree Days 18 (Base 50)    
Moisture  
Dew Point 54 °F    
Average Humidity 75    
Maximum Humidity 93    
Minimum Humidity 37    
Precipitation  
Precipitation 0.00 in - - ()
Sea Level Pressure  
Sea Level Pressure 29.93 in    
Wind  
Wind Speed 3 mph (WSW)    
Max Wind Speed 10 mph    
Max Gust Speed 16 mph    
Visibility 7 miles    
Events      
Averages and records for this station are not official NWS values.
T = Trace of Precipitation, MM = Missing Value Source: NWS Daily Summary

Daily Weather History Graph

Daily Weather History Graph

Search for Another Location

Airport:

Trip Planner

Search our weather history database for the weather conditions in past years. The results will help you decide how hot, cold, wet, or windy it might be!

Date:

Astronomy

May. 10, 2013 Rise Set
Actual Time 5:29 AM EDT 7:52 PM EDT
Civil Twilight 4:57 AM EDT 8:24 PM EDT
Nautical Twilight 4:18 AM EDT 9:02 PM EDT
Astronomical Twilight 3:35 AM EDT 9:46 PM EDT
Moon 5:51 AM EDT 8:39 PM EDT
Length of Visible Light 15h 26m
Length of Day
14h 23m
New Moon, 0% of the Moon is Illuminated
May 10
New Moon
May 18
First Quarter
May 25
Full
May 31
Last Quarter
Jun 8
New

Hourly Weather History & Observations

Time (EDT) Temp. Dew Point Humidity Pressure Visibility Wind Dir Wind Speed Gust Speed Precip Events Conditions
1:05 AM 57.0 °F 55.0 °F 93% 29.89 in 2.5 mi West 3.5 mph - N/A   Overcast
1:19 AM 57.0 °F 55.0 °F 93% 29.90 in 3.0 mi Calm Calm - N/A   Overcast
1:52 AM 57.0 °F 55.0 °F 93% 29.89 in 4.0 mi WSW 4.6 mph - N/A   Overcast
2:52 AM 57.9 °F 55.9 °F 93% 29.90 in 4.0 mi WNW 3.5 mph - N/A   Overcast
3:14 AM 59.0 °F 55.9 °F 90% 29.90 in 7.0 mi WNW 3.5 mph - N/A   Overcast
3:52 AM 57.9 °F 55.0 °F 90% 29.91 in 7.0 mi Calm Calm - N/A   Overcast
4:19 AM 55.9 °F 53.1 °F 90% 29.91 in 4.0 mi Calm Calm - N/A   Scattered Clouds
4:29 AM 55.0 °F 53.1 °F 93% 29.91 in 1.8 mi Calm Calm - N/A   Clear
4:34 AM 55.9 °F 53.1 °F 90% 29.91 in 0.8 mi Calm Calm - N/A   Clear
4:50 AM 55.4 °F 51.8 °F 88% 29.91 in 1.5 mi WSW 3.5 mph - N/A   Clear
4:52 AM 55.0 °F 53.1 °F 93% 29.92 in 2.0 mi WSW 3.5 mph - N/A   Clear
4:54 AM 55.0 °F 53.1 °F 93% 29.92 in 3.0 mi WSW 3.5 mph - N/A   Partly Cloudy
5:11 AM 55.9 °F 54.0 °F 93% 29.92 in 4.0 mi Calm Calm - N/A   Mostly Cloudy
5:52 AM 57.0 °F 55.0 °F 93% 29.93 in 3.0 mi Calm Calm - N/A   Overcast
5:58 AM 57.0 °F 55.0 °F 93% 29.93 in 1.8 mi West 3.5 mph - N/A   Overcast
6:13 AM 57.0 °F 55.0 °F 93% 29.94 in 0.8 mi WSW 3.5 mph - N/A   Overcast
6:28 AM 55.9 °F 54.0 °F 93% 29.94 in 1.5 mi Calm Calm - N/A   Overcast
6:52 AM 57.0 °F 55.0 °F 93% 29.94 in 3.0 mi SW 3.5 mph - N/A   Overcast
7:52 AM 59.0 °F 55.0 °F 87% 29.96 in 9.0 mi West 4.6 mph - N/A   Overcast
8:01 AM 59.0 °F 55.0 °F 87% 29.96 in 10.0 mi Variable 4.6 mph - N/A   Overcast
8:19 AM 61.0 °F 55.0 °F 81% 29.96 in 10.0 mi West 6.9 mph - N/A   Scattered Clouds
8:52 AM 64.0 °F 55.0 °F 73% 29.96 in 10.0 mi WNW 3.5 mph - N/A   Partly Cloudy
9:52 AM 68.0 °F 55.0 °F 63% 29.96 in 10.0 mi Variable 4.6 mph - N/A   Clear
10:52 AM 73.0 °F 55.0 °F 53% 29.95 in 10.0 mi WSW 4.6 mph - N/A   Clear
11:52 AM 75.9 °F 53.1 °F 45% 29.94 in 10.0 mi WNW 8.1 mph - N/A   Partly Cloudy
12:52 PM 75.0 °F 51.1 °F 43% 29.93 in 10.0 mi Calm Calm - N/A   Partly Cloudy
1:52 PM 78.1 °F 50.0 °F 37% 29.92 in 10.0 mi WNW 5.8 mph - N/A   Scattered Clouds
2:52 PM 80.1 °F 52.0 °F 38% 29.91 in 10.0 mi Calm Calm - N/A   Scattered Clouds
3:52 PM 79.0 °F 53.1 °F 40% 29.91 in 10.0 mi SW 8.1 mph - N/A   Mostly Cloudy
4:52 PM 78.1 °F 54.0 °F 43% 29.91 in 10.0 mi SSW 10.4 mph 16.1 mph N/A   Clear
5:52 PM 75.0 °F 52.0 °F 44% 29.92 in 10.0 mi SSW 9.2 mph - N/A   Clear
6:52 PM 70.0 °F 51.1 °F 51% 29.92 in 10.0 mi South 8.1 mph - N/A   Clear
7:52 PM 66.9 °F 51.1 °F 57% 29.94 in 10.0 mi South 5.8 mph - N/A   Clear
8:52 PM 64.9 °F 51.1 °F 61% 29.95 in 10.0 mi South 6.9 mph - N/A   Clear
9:52 PM 63.0 °F 51.1 °F 65% 29.96 in 10.0 mi South 6.9 mph - N/A   Clear
10:52 PM 63.0 °F 51.1 °F 65% 29.95 in 10.0 mi South 4.6 mph - N/A   Clear
11:52 PM 62.1 °F 52.0 °F 70% 29.94 in 10.0 mi SSW 4.6 mph - N/A   Clear